DMSP 5D-2 F13 DEB, 40676

Orbit data source: Space-Track

DMSP 5D-2 F13 DEB, 40676 is space debris in SSO originally from a launch on Fri, 24 Mar 1995 UTC launched from the Air Force Western Test Range (AFWTR). Debris objects in space refer to the collection of defunct objects orbiting the Earth. Examples of debris include non-operational satellites, rocket bodies, and fragments generated from explosions, collisions, or faulty payload assembly.

Loading next visibility...
Identifier
40676, 1995-015FQ
Orbit
SSO
Country
Flag of USUS
Related business
Manufacturer
Unknown
Mission
Spacecraft
Bus & Motor
Unknown
Mass
Unknown
Launch date (UTC)
1995-03-24 (30 years ago)
Launch vehicle
Unknown
Launch site
Air Force Western Test Range (AFWTR)
Object type
Payload
Rocket body
Debris
Shape & HBR
Unknown
Radar Cross Section
Small (<0.1 m²)

Expand to show TLE details & history
Last TLE update: 15 hours ago

TLE from 15 hours ago
0 DMSP 5D-2 F13 DEB
1 40676U 95015FQ  25257.88371325  .00003605  00000-0  12140-2 0  9995
2 40676  98.7017 289.1327 0007123 119.9266 240.2629 14.37676299536795
Epoch: 2025-09-14T21:12Z
TLE epoch observation values (Epoch: 2025-09-14T21:12:32.824Z)
Latitude
0.00001°
Longitude
-23.10039°
Altitude
771.653 km
Speed
7.467 km/s
True Right ascension
19h 16m 31s
True Declination
0° 00' 00"
Sunlit
Object was in daylight at epoch
Visualization orbit readout
Latitude
Unknown
Longitude
Unknown
Altitude
Unknown
Speed
Unknown
Apparent Right ascension
Unknown
Apparent Declination
Unknown
Sunlit
N/A
Visualization observer readout
Local Sidereal Time
05:01:08
Azimuth
Unknown
Elevation
Unknown
Doppler factor
Unknown
Orbital elements
Apogee altitude
768.408 km
Perigee altitude
758.234 km
Semi-major axis
7,141.458 km
Eccentricity
0.00071
Inclination
98.7017°
RAAN
289.1327°
Arg. of periapsis
119.9266°
True anomaly
240.19206°
Mean anomaly
240.2629°
Eccentric anomaly
240.22748°
Mean motion
3.59636 °/min
Orbital period
100.1 mins
BSTAR
0.001214
Loading maneuver chart data...
Computing Atmospheric mass density...

Documentation

Showing up to 5 results
|